When you browse on this site, cookies collect data to enhance your experience and personalize the content and advertising you see.
Visit our Privacy Policy to learn more. By continuing to use the site, you agree to this use of cookies and data.
  • In France
  • List of Countries
  • For 7 days
  • Water Temperature
  • Weather Map
  • Weather Widgets
  • user-avatar
    Login

    Hourly Weather Encamp

    Today, 24 February, Monday

    Time Temperature Precipitation Wind Pressure Humidity
    00:00 +6°C° 0 mm 1 mps 631 mmHg 30%
    01:00 +6°C° 0 mm 1 mps 630 mmHg 31%
    02:00 +6°C° 0 mm 1 mps 630 mmHg 33%
    03:00 +6°C° 0 mm 1 mps 629 mmHg 35%
    04:00 +5°C° 0 mm 1 mps 629 mmHg 37%
    05:00 +5°C° 0 mm 1 mps 629 mmHg 40%
    06:00 +5°C° 0 mm 1 mps 629 mmHg 42%
    07:00 +7°C° 0 mm 1 mps 629 mmHg 41%
    08:00 +9°C° 0 mm 1 mps 630 mmHg 39%
    09:00 +10°C° 0 mm 0 mps 631 mmHg 37%
    10:00 +12°C° 0 mm 0 mps 631 mmHg 34%
    11:00 +14°C° 0 mm 1 mps 631 mmHg 31%
    12:00 +16°C° 0 mm 1 mps 631 mmHg 27%
    13:00 +16°C° 0 mm 1 mps 631 mmHg 29%
    14:00 +15°C° 0 mm 1 mps 630 mmHg 31%
    15:00 +15°C° 0 mm 1 mps 629 mmHg 32%
    16:00 +12°C° 0 mm 1 mps 628 mmHg 40%
    17:00 +9°C° 0 mm 1 mps 627 mmHg 48%
    18:00 +7°C° 0 mm 1 mps 626 mmHg 56%
    19:00 +6°C° 0 mm 1 mps 625 mmHg 50%
    20:00 +6°C° 0 mm 1 mps 625 mmHg 43%
    21:00 +5°C° 0 mm 1 mps 625 mmHg 37%
    22:00 +4°C° 0 mm 2 mps 624 mmHg 36%
    23:00 +4°C° 0 mm 2 mps 624 mmHg 36%

    Tomorrow, 25 February, Tuesday

    Time Temperature Precipitation Wind Pressure Humidity
    00:00 +3°C° 0 mm 2 mps 624 mmHg 35%
    01:00 +3°C° 0 mm 2 mps 623 mmHg 35%
    02:00 +4°C° 0 mm 1 mps 623 mmHg 36%
    03:00 +4°C° 0 mm 1 mps 622 mmHg 36%
    04:00 +4°C° 0 mm 1 mps 622 mmHg 37%
    05:00 +3°C° 0 mm 1 mps 622 mmHg 37%
    06:00 +3°C° 0 mm 1 mps 622 mmHg 37%
    07:00 +4°C° 0 mm 1 mps 622 mmHg 39%
    08:00 +5°C° 0 mm 1 mps 623 mmHg 40%
    09:00 +6°C° 0 mm 1 mps 623 mmHg 41%
    10:00 +7°C° 0 mm 1 mps 623 mmHg 44%
    11:00 +7°C° 0 mm 1 mps 623 mmHg 46%
    12:00 +8°C° 0 mm 1 mps 623 mmHg 49%
    13:00 +7°C° 0 mm 1 mps 622 mmHg 52%
    14:00 +6°C° 0 mm 2 mps 622 mmHg 56%
    15:00 +6°C° 0 mm 2 mps 621 mmHg 59%
    16:00 +5°C° 0.2 mm 2 mps 621 mmHg 69%
    17:00 +3°C° 0.2 mm 2 mps 620 mmHg 79%
    18:00 +2°C° 0.2 mm 2 mps 620 mmHg 89%
    19:00 +1°C° 0.1 mm 2 mps 620 mmHg 90%
    20:00 +1°C° 0.1 mm 2 mps 620 mmHg 91%
    21:00 -1°C° 0.1 mm 2 mps 620 mmHg 91%
    22:00 -1°C° 0 mm 2 mps 620 mmHg 91%
    23:00 -2°C° 0 mm 2 mps 620 mmHg 90%

    Day after tomorrow, 26 February, Wednesday

    Time Temperature Precipitation Wind Pressure Humidity
    00:00 -2°C° 0 mm 2 mps 619 mmHg 89%
    01:00 -2°C° 0 mm 2 mps 619 mmHg 87%
    02:00 -3°C° 0 mm 2 mps 619 mmHg 84%
    03:00 -3°C° 0 mm 2 mps 618 mmHg 82%
    04:00 -3°C° 0.1 mm 2 mps 618 mmHg 82%
    05:00 -3°C° 0.1 mm 2 mps 618 mmHg 81%
    06:00 -4°C° 0.1 mm 3 mps 618 mmHg 81%
    07:00 -4°C° 0.4 mm 3 mps 618 mmHg 76%
    08:00 -2°C° 0.4 mm 3 mps 619 mmHg 70%
    09:00 -2°C° 0.4 mm 4 mps 620 mmHg 65%
    10:00 -1°C° 0.3 mm 4 mps 620 mmHg 61%
    11:00 -1°C° 0.3 mm 4 mps 621 mmHg 57%
    12:00 0°C° 0.3 mm 4 mps 621 mmHg 53%
    13:00 -1°C° 0.4 mm 4 mps 621 mmHg 55%
    14:00 -1°C° 0.4 mm 4 mps 620 mmHg 56%
    15:00 -1°C° 0.4 mm 4 mps 620 mmHg 58%
    16:00 -2°C° 0.3 mm 3 mps 620 mmHg 65%
    17:00 -4°C° 0.3 mm 3 mps 620 mmHg 71%
    18:00 -5°C° 0.3 mm 3 mps 620 mmHg 78%
    19:00 -6°C° 0.2 mm 3 mps 620 mmHg 79%
    20:00 -6°C° 0.2 mm 3 mps 621 mmHg 80%
    21:00 -5°C° 0.2 mm 2 mps 621 mmHg 82%
    22:00 -6°C° 0 mm 2 mps 621 mmHg 81%
    23:00 -6°C° 0 mm 2 mps 621 mmHg 79%

    27 February, Thursday

    Time Temperature Precipitation Wind Pressure Humidity
    00:00 -6°C° 0 mm 2 mps 621 mmHg 78%
    01:00 -6°C° 0 mm 2 mps 621 mmHg 74%
    02:00 -4°C° 0 mm 1 mps 621 mmHg 70%
    03:00 -4°C° 0 mm 1 mps 621 mmHg 65%
    04:00 -4°C° 0 mm 1 mps 621 mmHg 63%
    05:00 -4°C° 0 mm 1 mps 621 mmHg 60%
    06:00 -4°C° 0 mm 1 mps 621 mmHg 57%
    07:00 -2°C° 0 mm 1 mps 622 mmHg 53%
    08:00 0°C° 0 mm 1 mps 623 mmHg 49%
    09:00 +2°C° 0 mm 1 mps 624 mmHg 46%
    10:00 +4°C° 0 mm 1 mps 624 mmHg 46%
    11:00 +5°C° 0 mm 1 mps 624 mmHg 47%
    12:00 +7°C° 0 mm 1 mps 625 mmHg 48%
    13:00 +7°C° 0 mm 1 mps 624 mmHg 52%
    14:00 +7°C° 0 mm 1 mps 624 mmHg 55%
    15:00 +6°C° 0 mm 2 mps 624 mmHg 59%
    16:00 +5°C° 0 mm 1 mps 623 mmHg 66%
    17:00 +3°C° 0 mm 1 mps 622 mmHg 74%
    18:00 +1°C° 0 mm 1 mps 621 mmHg 82%
    19:00 +1°C° 0 mm 1 mps 622 mmHg 78%
    20:00 -2°C° 0 mm 2 mps 622 mmHg 74%
    21:00 -2°C° 0 mm 2 mps 622 mmHg 71%
    22:00 -2°C° 0 mm 2 mps 622 mmHg 65%
    23:00 -2°C° 0 mm 2 mps 622 mmHg 60%

    28 February, Friday

    Time Temperature Precipitation Wind Pressure Humidity
    00:00 -2°C° 0 mm 2 mps 622 mmHg 55%
    01:00 -2°C° 0 mm 2 mps 622 mmHg 56%
    02:00 -1°C° 0 mm 2 mps 622 mmHg 57%
    03:00 -1°C° 0 mm 2 mps 621 mmHg 58%
    04:00 -1°C° 0 mm 2 mps 622 mmHg 62%
    05:00 -1°C° 0 mm 2 mps 622 mmHg 66%
    06:00 -1°C° 0 mm 2 mps 622 mmHg 69%
    07:00 +3°C° 0 mm 1 mps 623 mmHg 66%
    08:00 +5°C° 0 mm 1 mps 623 mmHg 64%
    09:00 +6°C° 0 mm 0 mps 624 mmHg 61%
    10:00 +8°C° 0 mm 1 mps 624 mmHg 57%
    11:00 +9°C° 0 mm 1 mps 624 mmHg 53%
    12:00 +9°C° 0 mm 2 mps 624 mmHg 49%
    13:00 +9°C° 0 mm 2 mps 623 mmHg 50%
    14:00 +9°C° 0 mm 2 mps 623 mmHg 51%
    15:00 +8°C° 0 mm 2 mps 622 mmHg 52%
    16:00 +7°C° 0 mm 2 mps 621 mmHg 57%
    17:00 +5°C° 0 mm 2 mps 620 mmHg 62%
    18:00 +3°C° 0 mm 2 mps 619 mmHg 67%
    19:00 +2°C° 0 mm 2 mps 619 mmHg 66%
    20:00 +2°C° 0 mm 2 mps 619 mmHg 65%
    21:00 +2°C° 0 mm 1 mps 619 mmHg 64%
    22:00 +2°C° 0 mm 1 mps 619 mmHg 62%
    23:00 +2°C° 0 mm 1 mps 619 mmHg 60%

    29 February, Saturday

    Time Temperature Precipitation Wind Pressure Humidity
    00:00 +2°C° 0 mm 1 mps 618 mmHg 59%
    01:00 +2°C° 0 mm 1 mps 618 mmHg 61%
    02:00 +1°C° 0 mm 2 mps 618 mmHg 63%
    03:00 +1°C° 0 mm 2 mps 618 mmHg 65%
    04:00 -1°C° 0 mm 2 mps 618 mmHg 69%
    05:00 -1°C° 0 mm 2 mps 618 mmHg 74%
    06:00 -1°C° 0 mm 2 mps 618 mmHg 78%
    07:00 +1°C° 0 mm 2 mps 619 mmHg 75%
    08:00 +4°C° 0 mm 1 mps 620 mmHg 72%
    09:00 +6°C° 0 mm 1 mps 621 mmHg 70%
    10:00 +6°C° 0 mm 1 mps 621 mmHg 65%
    11:00 +6°C° 0 mm 2 mps 621 mmHg 61%
    12:00 +7°C° 0 mm 2 mps 621 mmHg 56%
    13:00 +7°C° 0 mm 2 mps 621 mmHg 58%
    14:00 +7°C° 0 mm 2 mps 620 mmHg 59%
    15:00 +7°C° 0 mm 2 mps 619 mmHg 61%
    16:00 +6°C° 0 mm 2 mps 619 mmHg 68%
    17:00 +5°C° 0 mm 2 mps 618 mmHg 75%
    18:00 +3°C° 0 mm 2 mps 617 mmHg 82%
    19:00 +3°C° 0 mm 2 mps 617 mmHg 85%
    20:00 +3°C° 0 mm 2 mps 616 mmHg 87%
    21:00 +1°C° 0 mm 3 mps 616 mmHg 90%
    22:00 +1°C° 0.1 mm 3 mps 616 mmHg 91%
    23:00 +2°C° 0.1 mm 2 mps 615 mmHg 92%
    Show more